Location: Johnson City
(36.3130°N, 82.3540°W)
Time: 12:34:35
(UTC-04:00)

OTV 5 (USA 277) - Visible Passes

Search period start: 22 October 2018 00:00
Search period end: 01 November 2018 00:00
Orbit: 387 x 394 km, 54.5° (Epoch: 08 September)

Date Brightness Start Highest point End Pass type
(mag) Time Alt. Az. Time Alt. Az. Time Alt. Az.
22 Oct ? 20:14:54 10° SSW 20:17:21 43° S 20:17:21 43° S visible
23 Oct ? 19:19:18 10° S 19:21:45 20° SE 19:23:43 13° E visible
23 Oct ? 20:54:46 10° W 20:56:09 19° W 20:56:09 19° W visible
24 Oct ? 19:57:53 10° SW 20:01:02 64° NW 20:02:22 31° NNE visible
25 Oct ? 20:38:42 10° WNW 20:40:45 16° NNW 20:40:52 16° NNW visible
26 Oct ? 19:41:15 10° WSW 19:44:07 30° NW 19:46:51 11° NNE visible
28 Oct ? 19:25:03 10° W 19:27:18 18° NW 19:29:34 10° N visible
30 Oct ? 19:09:40 10° NW 19:10:34 11° NNW 19:11:29 10° NNW visible
